Flag for Taiwan Weather past 2 weeks in Taipei, Taiwan

Now
68 °F

Partly sunny.


Feels Like: 68 °F
Forecast: 60 / 63 °F
Wind: 12 mph from East

Location: Sungshan / Taipei

Current Time: Jan 26, 2015 at 4:58:58 PM

Latest Report: Jan 26, 2015 at 4:30 PM


Visibility: N/A

Pressure: 30.07 "Hg

Humidity: 69%

Dew point: 57 °F

Location of TaipeiLocation

Historic Weather in Taipei — Graph

°F

Taipei temperature yesterday

Maximum temperature yesterday: 73 °F (at 2:00 PM)
Minimum temperature yesterday: 59 °F (at 12:00 AM)
Average temperature yesterday: 67 °F

Past Weeks' High & Low Weather Summary

 TemperatureHumidityPressure
High75 °F (Jan 13, 1:00 PM)88% (Jan 12, 6:30 PM)30.39 "Hg (Jan 12, 6:30 PM)
Low46 °F (Jan 23, 7:00 AM)35% (Jan 23, 2:00 PM)29.98 "Hg (Jan 13, 1:00 PM)
Average63 °F62%30.18 "Hg
* Reported Jan 11 3:00 PM — Jan 26 3:30 PM, Taipei, Weather by CustomWeather, © 2014

Note: Actual official high and low records may vary slightly from our data, if they occured in-between our weather recording intervals... More about our weather records

Advertising

Taipei weather history for previous 24 hours

 ConditionsComfort  
Time TempWeatherWind HumidityBarometerVisibility
3:30 PM
Jan 26
70 °FPartly sunny.10 mph64%30.04 "Hg6 mi
3:00 PM70 °FPartly sunny.10 mph60%30.04 "Hg6 mi
2:30 PM70 °FBroken clouds.12 mph60%30.04 "HgN/A
2:00 PM72 °FBroken clouds.9 mph61%30.07 "Hg6 mi
1:30 PM70 °FBroken clouds.5 mph60%30.07 "Hg6 mi
1:00 PM68 °FBroken clouds.6 mph64%30.09 "Hg6 mi
12:30 PM68 °FBroken clouds.8 mph69%30.09 "Hg6 mi
12:00 PM66 °FBroken clouds.6 mph73%30.09 "Hg4 mi
11:30 AM66 °FBroken clouds.6 mph73%30.12 "Hg4 mi
11:00 AM66 °FLight rain. Broken clouds.6 mph73%30.12 "Hg4 mi
10:30 AM66 °FLight rain. Partly sunny.5 mph64%30.15 "Hg4 mi
10:00 AM66 °FPartly sunny.3 mph64%30.15 "Hg5 mi
9:30 AM66 °FBroken clouds.2 mph68%30.15 "Hg5 mi
9:00 AM66 °FBroken clouds.2 mph73%30.15 "Hg5 mi
8:30 AM64 °FBroken clouds.2 mph78%30.15 "Hg4 mi
8:00 AM63 °FBroken clouds.3 mph83%30.15 "Hg5 mi
7:30 AM63 °FBroken clouds.3 mph83%30.15 "Hg5 mi
7:00 AM63 °FBroken clouds.6 mph83%30.12 "Hg5 mi
6:56 AM63 °FBroken clouds.6 mph83%30.12 "Hg5 mi
6:30 AM63 °FLight rain. Partly cloudy.5 mph83%30.12 "Hg4 mi
6:00 AM63 °FPassing clouds.5 mph83%30.12 "HgN/A
5:00 AM63 °FPassing clouds.5 mph83%30.12 "HgN/A
4:00 AM63 °FPassing clouds.1 mph77%30.12 "HgN/A
3:00 AM64 °FPassing clouds.2 mph73%30.12 "HgN/A
2:00 AM64 °FPassing clouds.2 mph73%30.12 "HgN/A
1:00 AM64 °FPassing clouds.2 mph78%30.12 "HgN/A
12:00 AM64 °FPassing clouds.3 mph78%30.15 "Hg5 mi
11:30 PM
Jan 25
63 °FPassing clouds.7 mph83%30.12 "Hg5 mi
11:00 PM64 °FPassing clouds.6 mph83%30.12 "HgN/A
10:30 PM64 °FPassing clouds.8 mph83%30.12 "HgN/A
10:00 PM64 °FPassing clouds.6 mph83%30.12 "HgN/A
9:30 PM64 °FPassing clouds.7 mph83%30.12 "HgN/A
9:00 PM66 °FPassing clouds.6 mph78%30.12 "Hg5 mi
8:30 PM66 °FPassing clouds.6 mph78%30.12 "HgN/A
8:00 PM68 °FPassing clouds.5 mph69%30.12 "HgN/A
7:30 PM68 °FPartly cloudy.5 mph69%30.09 "HgN/A
7:00 PM70 °FPartly cloudy.1 mph60%30.09 "HgN/A
6:30 PM70 °FPartly cloudy.5 mph60%30.09 "HgN/A
6:00 PM70 °FPartly cloudy.3 mph57%30.09 "HgN/A
5:30 PM72 °FPartly sunny.5 mph53%30.09 "HgN/A
5:00 PM72 °FBroken clouds.7 mph57%30.07 "HgN/A
4:30 PM73 °FPartly sunny.8 mph50%30.07 "HgN/A
4:00 PM73 °FPartly sunny.8 mph50%30.07 "HgN/A
Weather by CustomWeather, © 2014

See weather overviewHow to use our weather pages